Tracking 28790 objects as of 19-Apr-2024
HD Live streaming from Space Station
objects crossing your sky now

COSMOS 970 DEB

Track COSMOS 970 DEB now!
10-day predictions


NORAD ID: 18494
Int'l Code: 1977-121BQ
Perigee: 950.3 km
Apogee: 1,128.3 km
Inclination: 65.8 °
Period: 105.8 minutes
Semi major axis: 7410 km
RCS: 0.0077 m2 (small)
Launch date: December 21, 1977
Source: Commonwealth of Independent States (former USSR) (CIS)
Launch site: TYURATAM MISSILE AND SPACE COMPLEX (TTMTR)

Note: This is SATELLITE DEBRIS
Your satellite tracking list
Your tracking list is empty




NASA's NSSDC Master Catalog

Two Line Element Set (TLE):
1 18494U 77121BQ  24107.97606882  .00000268  00000-0  43401-3 0  9995
2 18494  65.8200 299.9953 0120101 332.6177 179.1184 13.60985093759780
Source of the keplerian elements: AFSPC